Terminal Aerodrome Forecast
Issued by NWS

Home | Current Version | Previous Version | Graphics & Text | Print | Product List | Glossary On
Versions: 1 2 3 4 5 6 7 8 9 10 11 12 13 14 15
000
FTUS43 KICT 251129
TAFHUT
TAF
KHUT 251129Z 2512/2612 32005KT P6SM BKN100
     FM251400 26005KT P6SM SCT100
     FM251800 22012G21KT P6SM SCT150
     FM260100 18013KT P6SM BKN080
     FM260900 31011KT P6SM BKN250=

USA.gov is the U.S. government's official web portal to all federal, state and local government web resources and services.